Marshall, MI

4:29 AM EST on February 28, 2017 (GMT -0500)
Brooks

Weather History for KRMY - May, 2013

Change the Weather History Date:

Thursday, May 23, 2013

  Actual Average (KBTL) Record (KBTL)
Temperature  
Mean Temperature 53 °F -  
Max Temperature 60 °F 66 °F 88 °F (2007)
Min Temperature 46 °F 46 °F 37 °F (2006)
Degree Days  
Heating Degree Days 12    
Growing Degree Days 3 (Base 50)    
Moisture  
Dew Point 51 °F    
Average Humidity 90    
Maximum Humidity 94    
Minimum Humidity 81    
Precipitation  
Precipitation 0.00 in - - ()
Sea Level Pressure  
Sea Level Pressure 29.89 in    
Wind  
Wind Speed 4 mph (NW)    
Max Wind Speed 12 mph    
Max Gust Speed 20 mph    
Visibility 8 miles    
Events Rain    
Averages and records for this station are not official NWS values.
T = Trace of Precipitation, MM = Missing Value Source: NWS Daily Summary

Daily Weather History Graph

Daily Weather History Graph

Search for Another Location

Airport or City:

Trip Planner

Search our weather history database for the weather conditions in past years. The results will help you decide how hot, cold, wet, or windy it might be!

Date:

Astronomy

May. 23, 2013 Rise Set
Actual Time 6:11 AM EDT 9:02 PM EDT
Civil Twilight 5:38 AM EDT 9:35 PM EDT
Nautical Twilight 4:56 AM EDT 10:17 PM EDT
Astronomical Twilight 4:08 AM EDT 11:05 PM EDT
Moon 7:32 PM EDT (5/23) 4:57 AM EDT (5/23)
Length of Visible Light 15h 57m
Length of Day
14h 50m
Waxing Gibbous, 97% of the Moon is Illuminated
May 23
Waxing Gibbous
May 25
Full
May 31
Last Quarter
Jun 8
New
Jun 16
First Quarter

Hourly Weather History & Observations

Time (EDT) Temp. Windchill Dew Point Humidity Pressure Visibility Wind Dir Wind Speed Gust Speed Precip Events Conditions
12:14 AM 60.1 °F - 57.6 °F 91% 29.72 in 10.0 mi Calm Calm - N/A   Clear
12:33 AM 59.5 °F - 57.0 °F 91% 29.72 in 10.0 mi Calm Calm - N/A   Clear
12:54 AM 59.0 °F - 57.0 °F 93% 29.73 in 10.0 mi Calm Calm - N/A   Scattered Clouds
1:14 AM 59.9 °F - 57.7 °F 93% 29.72 in 10.0 mi Calm Calm - N/A   Scattered Clouds
1:33 AM 60.3 °F - 57.9 °F 92% 29.72 in 10.0 mi WSW 3.5 mph - N/A   Mostly Cloudy
1:54 AM 60.6 °F - 58.1 °F 91% 29.72 in 10.0 mi SW 3.5 mph - N/A   Scattered Clouds
2:14 AM 60.3 °F - 57.7 °F 91% 29.72 in 10.0 mi SW 4.6 mph - N/A   Mostly Cloudy
2:33 AM 60.4 °F - 57.0 °F 88% 29.72 in 10.0 mi SW 4.6 mph - N/A   Mostly Cloudy
2:54 AM 59.5 °F - 56.3 °F 89% 29.72 in 10.0 mi SW 4.6 mph - N/A   Scattered Clouds
3:14 AM 60.1 °F - 57.4 °F 91% 29.72 in 10.0 mi SW 4.6 mph - N/A   Clear
3:33 AM 60.1 °F - 57.4 °F 91% 29.72 in 10.0 mi SW 5.8 mph - N/A   Scattered Clouds
3:54 AM 60.1 °F - 57.4 °F 91% 29.73 in 10.0 mi SW 5.8 mph - N/A   Scattered Clouds
4:14 AM 59.9 °F - 57.6 °F 92% 29.73 in 7.0 mi SW 5.8 mph - N/A   Scattered Clouds
4:34 AM 59.5 °F - 57.0 °F 91% 29.73 in 7.0 mi SW 4.6 mph - N/A   Clear
4:54 AM 59.2 °F - 56.7 °F 91% 29.73 in 10.0 mi SW 5.8 mph - N/A   Clear
5:13 AM 58.6 °F - 55.9 °F 91% 29.73 in 10.0 mi WSW 4.6 mph - N/A   Clear
5:34 AM 57.9 °F - 55.4 °F 91% 29.74 in 7.0 mi WSW 5.8 mph - N/A   Clear
5:54 AM 57.7 °F - 55.2 °F 91% 29.74 in 7.0 mi WSW 3.5 mph - N/A   Scattered Clouds
6:13 AM 57.9 °F - 55.6 °F 92% 29.74 in 7.0 mi WSW 5.8 mph - N/A   Overcast
6:34 AM 57.9 °F - 55.6 °F 92% 29.75 in 7.0 mi SW 4.6 mph - N/A   Overcast
6:54 AM 58.3 °F - 55.8 °F 91% 29.75 in 7.0 mi SW 5.8 mph - N/A   Overcast
7:13 AM 58.3 °F - 55.8 °F 91% 29.76 in 5.0 mi WSW 4.6 mph - N/A   Overcast
7:34 AM 58.3 °F - 55.8 °F 91% 29.76 in 5.0 mi WSW 8.1 mph - N/A   Overcast
7:54 AM 58.3 °F - 55.8 °F 91% 29.77 in 5.0 mi WSW 5.8 mph - N/A   Overcast
8:13 AM 58.3 °F - 55.8 °F 91% 29.77 in 4.0 mi WSW 6.9 mph - N/A   Overcast
8:34 AM 58.3 °F - 55.8 °F 91% 29.78 in 4.0 mi WSW 6.9 mph - N/A   Overcast
8:54 AM 58.3 °F - 55.8 °F 91% 29.78 in 4.0 mi West 5.8 mph - N/A   Overcast
9:13 AM 58.5 °F - 55.9 °F 91% 29.79 in 5.0 mi WSW 5.8 mph - N/A   Overcast
9:34 AM 58.5 °F - 55.6 °F 90% 29.79 in 7.0 mi WSW 6.9 mph - N/A   Overcast
9:54 AM 58.3 °F - 55.2 °F 90% 29.80 in 10.0 mi WSW 8.1 mph - N/A   Overcast
10:13 AM 57.9 °F - 55.0 °F 90% 29.80 in 10.0 mi WSW 8.1 mph - N/A   Overcast
10:34 AM 57.7 °F - 55.0 °F 91% 29.80 in 10.0 mi West 8.1 mph - N/A   Overcast
10:54 AM 56.7 °F - 54.5 °F 92% 29.81 in 3.0 mi West 8.1 mph - N/A Rain Rain
11:13 AM 55.9 °F - 54.0 °F 93% 29.82 in 5.0 mi West 6.9 mph - N/A   Light Drizzle
11:34 AM 55.8 °F - 54.0 °F 94% 29.83 in 1.5 mi West 10.4 mph - N/A   Light Drizzle
11:54 AM 54.5 °F - 52.7 °F 94% 29.84 in 1.8 mi WNW 5.8 mph - N/A   Drizzle
12:14 PM 53.8 °F - 52.0 °F 94% 29.86 in 2.5 mi North 8.1 mph 19.6 mph N/A Rain Rain
12:34 PM 53.1 °F - 50.7 °F 92% 29.87 in 5.0 mi NE 5.8 mph 17.3 mph N/A   Overcast
12:54 PM 52.7 °F - 50.4 °F 92% 29.88 in 7.0 mi NNE 5.8 mph - N/A   Overcast
1:14 PM 52.2 °F - 49.5 °F 91% 29.89 in 7.0 mi North 4.6 mph - N/A   Light Drizzle
1:34 PM 51.8 °F - 48.6 °F 89% 29.90 in 10.0 mi NNE 8.1 mph - N/A   Overcast
1:53 PM 51.1 °F - 47.7 °F 88% 29.91 in 10.0 mi NNE 4.6 mph 17.3 mph N/A   Overcast
2:14 PM 50.7 °F - 47.8 °F 90% 29.92 in 4.0 mi North 8.1 mph 17.3 mph N/A Rain Light Rain
2:34 PM 49.8 °F - 46.9 °F 90% 29.93 in 7.0 mi NNE 8.1 mph 16.1 mph N/A Rain Light Rain
2:54 PM 49.8 °F - 47.1 °F 90% 29.94 in 7.0 mi North 4.6 mph - N/A Rain Light Rain
3:13 PM 50.0 °F - 47.1 °F 90% 29.95 in 10.0 mi North 11.5 mph 17.3 mph N/A Rain Light Rain
3:34 PM 50.0 °F - 46.8 °F 89% 29.96 in 10.0 mi North 9.2 mph - N/A   Overcast
3:54 PM 50.0 °F - 46.6 °F 88% 29.96 in 10.0 mi North 4.6 mph 16.1 mph N/A   Overcast
4:00 PM 50.2 °F - 46.8 °F 88% 29.96 in 10.0 mi North 5.8 mph 16.1 mph N/A   Overcast
4:35 PM 50.0 °F - 46.4 °F 87% 29.98 in 10.0 mi North 4.6 mph - N/A   Overcast
4:55 PM 50.0 °F - 46.4 °F 87% 29.99 in 10.0 mi North 9.2 mph - N/A   Overcast
5:15 PM 48.2 °F - 44.6 °F 87% 30.01 in 10.0 mi NNE 5.8 mph 19.6 mph N/A   Overcast
5:35 PM 48.2 °F - 46.4 °F 93% 30.02 in 10.0 mi NNE 4.6 mph - N/A   Overcast
5:55 PM 50.0 °F - 46.4 °F 87% 30.03 in 10.0 mi NNE 3.5 mph - N/A   Overcast
6:15 PM 50.0 °F - 46.4 °F 87% 30.04 in 10.0 mi North 2.3 mph - N/A   Overcast
6:35 PM 50.0 °F - 46.4 °F 87% 30.05 in 10.0 mi North 4.6 mph - N/A   Overcast
6:55 PM 50.0 °F - 46.4 °F 87% 30.05 in 10.0 mi NNE 6.9 mph - N/A   Overcast
7:15 PM 50.0 °F - 46.4 °F 87% 30.06 in 10.0 mi North 5.8 mph - N/A   Overcast
7:35 PM 48.2 °F - 46.4 °F 93% 30.08 in 7.0 mi North 4.6 mph - N/A   Overcast
7:55 PM 46.4 °F 41.9 °F 44.6 °F 93% 30.09 in 3.0 mi North 9.2 mph - N/A   Overcast
8:15 PM 46.4 °F 45.2 °F 44.6 °F 93% 30.10 in 4.0 mi North 3.5 mph - N/A   Overcast
8:35 PM 46.4 °F 43.5 °F 44.6 °F 93% 30.11 in 10.0 mi North 5.8 mph - N/A   Overcast
8:55 PM 46.4 °F - 44.6 °F 93% 30.12 in 10.0 mi NW 1.2 mph - N/A   Overcast
9:15 PM 46.4 °F 43.5 °F 42.8 °F 87% 30.12 in 10.0 mi North 5.8 mph - N/A   Overcast
9:35 PM 46.4 °F 43.5 °F 42.8 °F 87% 30.13 in 10.0 mi North 5.8 mph - N/A   Overcast
9:55 PM 46.4 °F - 42.8 °F 87% 30.14 in 10.0 mi NNE 2.3 mph - N/A   Overcast
10:15 PM 46.4 °F 43.5 °F 42.8 °F 87% 30.15 in 10.0 mi North 5.8 mph - N/A   Overcast
10:35 PM 46.4 °F 43.5 °F 42.8 °F 87% 30.16 in 10.0 mi North 5.8 mph - N/A   Overcast
10:55 PM 46.4 °F 45.2 °F 42.8 °F 87% 30.17 in 10.0 mi North 3.5 mph - N/A   Overcast
11:15 PM 46.4 °F 45.2 °F 42.8 °F 87% 30.17 in 10.0 mi NNW 3.5 mph - N/A   Overcast
11:35 PM 46.4 °F - 41.0 °F 81% 30.17 in 10.0 mi NNW 2.3 mph - N/A   Overcast
11:55 PM 46.4 °F - 41.0 °F 81% 30.18 in 10.0 mi Calm Calm - N/A   Overcast